QPF
0.03 0.03 0.03 0.02 0.02 0.02 0.01 0.01 0.01 0.01 0.01 0.01 0.02 0.02 0.01 0.01 0.00 0.00 0.00 0.00 0.00 0.00 0.00 0.01 0.01 0.00 0.00 0.01 0.01 0.01 0.00 0.00 0.00 0.00 0.01 0.03 0.07 0.04 0.01 0.01 0.01 0.01 0.01
0.02 0.02 0.03 0.03 0.02 0.02 0.02 0.01 0.01 0.02 0.01 0.01 0.01 0.01 0.01 0.00 0.00 0.00 0.00 0.00 0.00 0.00 0.00 0.01 0.01 0.01 0.01 0.00 0.00 0.00 0.00 0.00 0.00 0.01 0.01 0.02 0.06 0.05 0.01 0.01 0.01 0.01 0.01
0.02 0.02 0.02 0.02 0.02 0.03 0.02 0.01 0.01 0.01 0.01 0.01 0.01 0.01 0.01 0.01 0.00 0.00 0.00 0.00 0.00 0.00 0.00 0.00 0.01 0.01 0.01 0.00 0.00 0.00 0.00 0.00 0.00 0.01 0.01 0.02 0.05 0.05 0.02 0.01 0.01 0.01 0.02
0.02 0.02 0.02 0.02 0.02 0.02 0.02 0.01 0.01 0.01 0.01 0.01 0.01 0.01 0.01 0.01 0.00 0.01 0.01 0.01 0.01 0.01 0.01 0.00 0.01 0.02 0.01 0.00 0.00 0.00 0.01 0.00 0.00 0.00 0.01 0.01 0.04 0.05 0.03 0.02 0.02 0.01 0.01
0.02 0.01 0.01 0.01 0.02 0.02 0.02 0.01 0.01 0.01 0.02 0.02 0.02 0.01 0.01 0.01 0.01 0.01 0.01 0.00 0.00 0.00 0.00 0.00 0.01 0.02 0.02 0.01 0.01 0.01 0.01 0.01 0.01 0.00 0.01 0.01 0.03 0.04 0.03 0.02 0.02 0.02 0.01
0.02 0.01 0.01 0.01 0.01 0.01 0.01 0.01 0.01 0.01 0.01 0.01 0.01 0.01 0.01 0.01 0.01 0.01 0.01 0.01 0.00 0.00 0.00 0.00 0.01 0.02 0.03 0.02 0.02 0.02 0.01 0.01 0.01 0.01 0.01 0.01 0.03 0.04 0.04 0.03 0.02 0.01 0.01
0.02 0.01 0.01 0.01 0.01 0.00 0.01 0.01 0.01 0.01 0.01 0.01 0.01 0.02 0.01 0.01 0.01 0.01 0.01 0.01 0.01 0.01 0.01 0.01 0.02 0.03 0.04 0.03 0.02 0.01 0.01 0.01 0.01 0.01 0.01 0.02 0.03 0.04 0.04 0.02 0.02 0.01 0.01
0.02 0.02 0.01 0.01 0.01 0.01 0.01 0.01 0.01 0.01 0.02 0.01 0.02 0.02 0.01 0.01 0.01 0.01 0.01 0.00 0.00 0.01 0.01 0.01 0.02 0.03 0.03 0.03 0.02 0.01 0.01 0.00 0.00 0.00 0.01 0.02 0.03 0.03 0.03 0.02 0.02 0.01 0.01
0.02 0.02 0.02 0.02 0.02 0.02 0.03 0.02 0.02 0.02 0.01 0.01 0.01 0.02 0.01 0.01 0.01 0.01 0.01 0.00 0.00 0.01 0.01 0.01 0.01 0.02 0.03 0.03 0.02 0.01 0.01 0.00 0.00 0.00 0.01 0.01 0.02 0.03 0.03 0.02 0.02 0.01 0.01
0.02 0.02 0.03 0.03 0.04 0.04 0.04 0.03 0.03 0.02 0.02 0.02 0.02 0.02 0.01 0.01 0.01 0.01 0.01 0.01 0.01 0.01 0.01 0.01 0.01 0.02 0.02 0.03 0.02 0.03 0.03 0.02 0.02 0.01 0.01 0.02 0.02 0.02 0.02 0.03 0.02 0.02 0.01
0.02 0.02 0.02 0.02 0.02 0.03 0.04 0.03 0.03 0.03 0.02 0.02 0.01 0.02 0.02 0.01 0.00 0.00 0.00 0.01 0.01 0.01 0.01 0.01 0.01 0.01 0.02 0.03 0.03 0.02 0.02 0.03 0.03 0.02 0.01 0.01 0.01 0.01 0.02 0.02 0.02 0.02 0.01
0.02 0.02 0.02 0.02 0.03 0.03 0.03 0.04 0.04 0.04 0.03 0.03 0.02 0.02 0.02 0.02 0.01 0.01 0.01 0.01 0.01 0.02 0.01 0.01 0.01 0.01 0.01 0.01 0.02 0.02 0.03 0.03 0.03 0.03 0.02 0.02 0.02 0.02 0.02 0.02 0.02 0.01 0.01
0.01 0.01 0.01 0.01 0.02 0.02 0.03 0.04 0.04 0.04 0.04 0.03 0.03 0.02 0.02 0.02 0.02 0.02 0.03 0.03 0.03 0.02 0.01 0.01 0.01 0.01 0.01 0.01 0.01 0.01 0.02 0.02 0.03 0.02 0.01 0.02 0.02 0.02 0.03 0.02 0.01 0.01 0.01
0.01 0.00 0.00 0.00 0.01 0.01 0.02 0.02 0.03 0.03 0.03 0.03 0.03 0.03 0.02 0.02 0.03 0.03 0.03 0.03 0.03 0.02 0.01 0.01 0.00 0.00 0.01 0.00 0.00 0.01 0.01 0.02 0.02 0.02 0.02 0.02 0.03 0.03 0.04 0.02 0.01 0.01 0.01
0.00 0.00 0.00 0.00 0.01 0.01 0.01 0.02 0.02 0.02 0.02 0.03 0.03 0.03 0.03 0.03 0.03 0.03 0.03 0.02 0.02 0.01 0.01 0.01 0.01 0.00 0.00 0.00 0.00 0.01 0.01 0.01 0.02 0.02 0.02 0.02 0.04 0.04 0.04 0.04 0.03 0.02 0.02
0.00 0.00 0.00 0.00 0.00 0.01 0.01 0.01 0.02 0.02 0.02 0.02 0.03 0.03 0.03 0.03 0.02 0.02 0.02 0.02 0.02 0.02 0.01 0.01 0.01 0.01 0.01 0.00 0.00 0.01 0.01 0.01 0.01 0.02 0.02 0.02 0.03 0.04 0.05 0.04 0.03 0.03 0.02
0.00 0.00 0.00 0.00 0.00 0.01 0.01 0.01 0.01 0.02 0.02 0.02 0.02 0.02 0.02 0.01 0.01 0.01 0.01 0.02 0.02 0.02 0.02 0.02 0.02 0.01 0.01 0.01 0.01 0.00 0.00 0.01 0.01 0.01 0.02 0.02 0.02 0.03 0.03 0.03 0.03 0.03 0.02
0.00 0.00 0.01 0.01 0.01 0.01 0.01 0.01 0.01 0.01 0.02 0.03 0.03 0.02 0.02 0.02 0.01 0.01 0.01 0.01 0.02 0.03 0.03 0.03 0.02 0.02 0.01 0.01 0.01 0.00 0.01 0.01 0.01 0.01 0.01 0.02 0.02 0.02 0.02 0.02 0.02 0.02 0.03
0.01 0.01 0.01 0.01 0.01 0.01 0.01 0.02 0.02 0.02 0.02 0.02 0.02 0.03 0.03 0.02 0.02 0.02 0.02 0.01 0.02 0.02 0.02 0.02 0.02 0.03 0.03 0.02 0.01 0.01 0.01 0.01 0.01 0.01 0.01 0.01 0.01 0.02 0.02 0.02 0.02 0.02 0.02
0.01 0.01 0.01 0.00 0.00 0.00 0.00 0.01 0.01 0.01 0.02 0.02 0.02 0.02 0.02 0.02 0.02 0.02 0.02 0.02 0.02 0.02 0.02 0.02 0.02 0.02 0.03 0.03 0.02 0.02 0.01 0.01 0.01 0.01 0.01 0.01 0.01 0.01 0.02 0.02 0.02 0.02 0.02
0.00 0.00 0.00 0.00 0.00 0.00 0.00 0.00 0.00 0.01 0.01 0.01 0.01 0.01 0.02 0.02 0.02 0.02 0.02 0.02 0.02 0.02 0.02 0.02 0.02 0.02 0.02 0.02 0.03 0.03 0.02 0.02 0.01 0.01 0.00 0.01 0.01 0.01 0.01 0.02 0.02 0.02 0.02
0.00 0.00 0.00 0.00 0.00 0.00 0.00 0.00 0.01 0.00 0.00 0.01 0.01 0.01 0.01 0.01 0.01 0.01 0.01 0.01 0.02 0.02 0.02 0.02 0.02 0.02 0.02 0.02 0.02 0.03 0.03 0.03 0.02 0.02 0.01 0.01 0.01 0.01 0.01 0.01 0.01 0.02 0.02
0.00 0.00 0.00 0.00 0.00 0.00 0.00 0.00 0.00 0.00 0.00 0.00 0.01 0.01 0.01 0.01 0.01 0.01 0.01 0.01 0.01 0.01 0.02 0.02 0.02 0.03 0.03 0.03 0.03 0.03 0.03 0.03 0.04 0.03 0.02 0.01 0.01 0.01 0.01 0.01 0.01 0.01 0.01
0.00 0.00 0.00 0.00 0.00 0.00 0.00 0.00 0.00 0.00 0.00 0.01 0.01 0.01 0.01 0.01 0.01 0.01 0.02 0.01 0.01 0.01 0.02 0.02 0.02 0.02 0.02 0.03 0.03 0.03 0.03 0.03 0.04 0.04 0.05 0.04 0.02 0.02 0.02 0.01 0.01 0.01 0.01
0.00 0.00 0.00 0.00 0.00 0.00 0.00 0.00 0.00 0.00 0.00 0.00 0.01 0.01 0.01 0.01 0.01 0.01 0.01 0.01 0.01 0.01 0.01 0.01 0.01 0.01 0.01 0.01 0.02 0.02 0.03 0.03 0.03 0.03 0.03 0.04 0.04 0.03 0.02 0.02 0.02 0.01 0.01
0.00 0.00 0.00 0.01 0.01 0.00 0.00 0.00 0.00 0.00 0.00 0.00 0.01 0.01 0.01 0.01 0.00 0.00 0.00 0.00 0.00 0.01 0.01 0.01 0.00 0.00 0.00 0.01 0.01 0.02 0.02 0.02 0.02 0.03 0.03 0.03 0.04 0.03 0.02 0.01 0.01 0.01 0.01
MSLP
1017.59 1017.51 1017.45 1017.40 1017.34 1017.29 1017.23 1017.19 1017.18 1017.20 1017.28 1017.40 1017.55 1017.74 1017.95 1018.15 1018.35 1018.53 1018.69 1018.83 1018.95 1019.05 1019.14 1019.19 1019.22 1019.21 1019.18 1019.14 1019.10 1019.08 1019.08 1019.12 1019.19 1019.28 1019.38 1019.45 1019.48 1019.47 1019.40 1019.28 1019.13 1018.99 1018.86
1018.42 1018.30 1018.19 1018.09 1017.98 1017.89 1017.79 1017.72 1017.68 1017.68 1017.73 1017.83 1017.96 1018.12 1018.30 1018.49 1018.68 1018.86 1019.04 1019.20 1019.34 1019.46 1019.53 1019.57 1019.57 1019.52 1019.43 1019.32 1019.22 1019.14 1019.10 1019.11 1019.17 1019.26 1019.36 1019.45 1019.51 1019.51 1019.45 1019.34 1019.19 1019.03 1018.88
1019.31 1019.16 1019.02 1018.88 1018.73 1018.59 1018.47 1018.37 1018.31 1018.28 1018.31 1018.38 1018.48 1018.62 1018.78 1018.95 1019.12 1019.31 1019.49 1019.66 1019.81 1019.93 1020.01 1020.04 1020.01 1019.93 1019.80 1019.65 1019.49 1019.36 1019.28 1019.25 1019.28 1019.35 1019.44 1019.53 1019.58 1019.58 1019.51 1019.39 1019.23 1019.05 1018.89
1020.16 1020.02 1019.85 1019.69 1019.52 1019.35 1019.20 1019.09 1019.01 1018.97 1018.98 1019.03 1019.12 1019.23 1019.36 1019.52 1019.67 1019.85 1020.02 1020.19 1020.35 1020.47 1020.56 1020.58 1020.54 1020.44 1020.28 1020.09 1019.90 1019.73 1019.60 1019.53 1019.52 1019.56 1019.62 1019.68 1019.71 1019.69 1019.61 1019.48 1019.30 1019.11 1018.92
1020.92 1020.78 1020.62 1020.45 1020.27 1020.09 1019.94 1019.83 1019.74 1019.71 1019.72 1019.76 1019.83 1019.93 1020.04 1020.16 1020.30 1020.45 1020.61 1020.77 1020.92 1021.04 1021.12 1021.15 1021.10 1020.99 1020.83 1020.62 1020.41 1020.21 1020.04 1019.93 1019.88 1019.87 1019.89 1019.91 1019.91 1019.87 1019.77 1019.62 1019.43 1019.22 1019.02
1021.53 1021.42 1021.28 1021.12 1020.95 1020.78 1020.64 1020.54 1020.47 1020.45 1020.47 1020.51 1020.57 1020.65 1020.74 1020.84 1020.95 1021.07 1021.20 1021.34 1021.47 1021.58 1021.66 1021.68 1021.64 1021.53 1021.37 1021.16 1020.94 1020.72 1020.54 1020.40 1020.31 1020.26 1020.24 1020.22 1020.18 1020.11 1020.00 1019.84 1019.64 1019.42 1019.21
1022.01 1021.94 1021.83 1021.69 1021.54 1021.40 1021.28 1021.20 1021.16 1021.15 1021.18 1021.23 1021.29 1021.35 1021.41 1021.48 1021.55 1021.62 1021.72 1021.82 1021.92 1022.01 1022.08 1022.10 1022.06 1021.97 1021.82 1021.63 1021.41 1021.20 1021.01 1020.85 1020.74 1020.66 1020.61 1020.57 1020.51 1020.42 1020.29 1020.13 1019.94 1019.73 1019.53
1022.39 1022.35 1022.28 1022.16 1022.04 1021.92 1021.84 1021.78 1021.77 1021.78 1021.82 1021.87 1021.92 1021.96 1021.99 1022.01 1022.03 1022.07 1022.11 1022.16 1022.22 1022.29 1022.33 1022.35 1022.32 1022.24 1022.11 1021.94 1021.75 1021.55 1021.37 1021.22 1021.10 1021.02 1020.96 1020.90 1020.84 1020.75 1020.63 1020.48 1020.31 1020.12 1019.93
1022.70 1022.68 1022.63 1022.55 1022.45 1022.37 1022.31 1022.28 1022.28 1022.31 1022.35 1022.40 1022.43 1022.44 1022.43 1022.41 1022.38 1022.35 1022.34 1022.34 1022.36 1022.39 1022.41 1022.41 1022.38 1022.32 1022.21 1022.07 1021.91 1021.74 1021.59 1021.45 1021.35 1021.28 1021.22 1021.17 1021.12 1021.05 1020.96 1020.84 1020.70 1020.54 1020.39
1022.94 1022.95 1022.91 1022.85 1022.78 1022.72 1022.69 1022.68 1022.69 1022.73 1022.76 1022.79 1022.79 1022.77 1022.72 1022.64 1022.56 1022.47 1022.41 1022.36 1022.34 1022.33 1022.33 1022.32 1022.28 1022.22 1022.13 1022.02 1021.89 1021.75 1021.62 1021.52 1021.44 1021.39 1021.36 1021.33 1021.30 1021.27 1021.21 1021.13 1021.03 1020.91 1020.80
1023.12 1023.13 1023.10 1023.06 1023.01 1022.98 1022.96 1022.96 1022.98 1023.01 1023.03 1023.03 1023.01 1022.94 1022.85 1022.73 1022.60 1022.47 1022.36 1022.28 1022.22 1022.18 1022.15 1022.12 1022.08 1022.02 1021.94 1021.84 1021.72 1021.61 1021.51 1021.43 1021.38 1021.35 1021.34 1021.34 1021.35 1021.35 1021.33 1021.29 1021.24 1021.17 1021.10
1023.19 1023.20 1023.18 1023.15 1023.12 1023.10 1023.10 1023.11 1023.13 1023.15 1023.15 1023.13 1023.07 1022.97 1022.84 1022.69 1022.53 1022.38 1022.24 1022.13 1022.05 1021.99 1021.95 1021.90 1021.85 1021.78 1021.70 1021.59 1021.49 1021.38 1021.29 1021.22 1021.18 1021.17 1021.18 1021.21 1021.24 1021.27 1021.29 1021.29 1021.28 1021.27 1021.24
1023.10 1023.11 1023.10 1023.09 1023.08 1023.08 1023.09 1023.11 1023.12 1023.13 1023.11 1023.06 1022.97 1022.85 1022.70 1022.53 1022.37 1022.21 1022.07 1021.97 1021.88 1021.82 1021.77 1021.72 1021.66 1021.57 1021.47 1021.36 1021.24 1021.12 1021.03 1020.95 1020.91 1020.90 1020.91 1020.95 1021.00 1021.05 1021.09 1021.13 1021.17 1021.19 1021.22
1022.82 1022.84 1022.84 1022.84 1022.86 1022.88 1022.90 1022.92 1022.94 1022.93 1022.90 1022.83 1022.72 1022.59 1022.43 1022.27 1022.11 1021.98 1021.86 1021.78 1021.72 1021.67 1021.63 1021.58 1021.52 1021.42 1021.31 1021.17 1021.03 1020.89 1020.76 1020.67 1020.61 1020.58 1020.59 1020.62 1020.67 1020.73 1020.80 1020.86 1020.92 1020.98 1021.05
1022.34 1022.36 1022.38 1022.41 1022.45 1022.49 1022.53 1022.55 1022.56 1022.54 1022.49 1022.41 1022.29 1022.16 1022.01 1021.87 1021.75 1021.65 1021.58 1021.54 1021.52 1021.51 1021.50 1021.46 1021.40 1021.30 1021.18 1021.02 1020.85 1020.69 1020.54 1020.41 1020.32 1020.28 1020.26 1020.28 1020.33 1020.39 1020.46 1020.53 1020.62 1020.71 1020.81
1021.67 1021.71 1021.75 1021.80 1021.86 1021.92 1021.97 1021.99 1021.99 1021.96 1021.90 1021.79 1021.67 1021.54 1021.41 1021.29 1021.21 1021.16 1021.15 1021.17 1021.21 1021.25 1021.27 1021.27 1021.23 1021.15 1021.03 1020.87 1020.69 1020.51 1020.34 1020.20 1020.09 1020.02 1019.99 1019.99 1020.03 1020.08 1020.16 1020.24 1020.34 1020.45 1020.58
1020.89 1020.94 1021.01 1021.08 1021.15 1021.22 1021.27 1021.28 1021.27 1021.21 1021.12 1021.00 1020.86 1020.72 1020.60 1020.51 1020.47 1020.46 1020.51 1020.58 1020.68 1020.78 1020.86 1020.91 1020.91 1020.86 1020.77 1020.63 1020.47 1020.29 1020.13 1019.99 1019.88 1019.80 1019.77 1019.77 1019.80 1019.86 1019.94 1020.03 1020.14 1020.26 1020.40
1020.10 1020.16 1020.24 1020.32 1020.39 1020.45 1020.48 1020.47 1020.42 1020.33 1020.20 1020.04 1019.88 1019.72 1019.60 1019.52 1019.49 1019.52 1019.60 1019.73 1019.88 1020.03 1020.17 1020.28 1020.34 1020.34 1020.30 1020.22 1020.10 1019.98 1019.85 1019.75 1019.66 1019.61 1019.60 1019.62 1019.66 1019.73 1019.81 1019.91 1020.02 1020.15 1020.29
1019.40 1019.46 1019.53 1019.60 1019.66 1019.69 1019.68 1019.63 1019.53 1019.39 1019.20 1018.99 1018.78 1018.59 1018.44 1018.34 1018.31 1018.35 1018.45 1018.60 1018.79 1018.99 1019.18 1019.34 1019.47 1019.55 1019.59 1019.58 1019.55 1019.50 1019.45 1019.41 1019.39 1019.40 1019.43 1019.48 1019.55 1019.64 1019.74 1019.85 1019.97 1020.10 1020.24
1018.87 1018.92 1018.97 1019.01 1019.03 1019.02 1018.96 1018.85 1018.68 1018.47 1018.21 1017.93 1017.66 1017.41 1017.21 1017.07 1017.01 1017.02 1017.11 1017.26 1017.46 1017.68 1017.91 1018.13 1018.32 1018.48 1018.60 1018.70 1018.77 1018.83 1018.88 1018.94 1019.02 1019.10 1019.20 1019.31 1019.43 1019.55 1019.67 1019.80 1019.92 1020.04 1020.17
1018.59 1018.60 1018.61 1018.61 1018.58 1018.51 1018.38 1018.20 1017.96 1017.66 1017.33 1016.98 1016.63 1016.31 1016.04 1015.84 1015.72 1015.68 1015.73 1015.85 1016.03 1016.25 1016.49 1016.74 1016.98 1017.21 1017.42 1017.62 1017.80 1017.97 1018.15 1018.32 1018.50 1018.68 1018.86 1019.04 1019.22 1019.38 1019.53 1019.67 1019.80 1019.92 1020.04
1018.55 1018.53 1018.49 1018.43 1018.35 1018.21 1018.02 1017.76 1017.44 1017.07 1016.66 1016.23 1015.81 1015.41 1015.07 1014.79 1014.59 1014.48 1014.47 1014.53 1014.66 1014.85 1015.07 1015.33 1015.60 1015.88 1016.15 1016.43 1016.71 1016.99 1017.28 1017.56 1017.84 1018.12 1018.39 1018.64 1018.88 1019.08 1019.27 1019.42 1019.56 1019.68 1019.78
1018.76 1018.69 1018.60 1018.50 1018.35 1018.16 1017.90 1017.58 1017.20 1016.77 1016.29 1015.80 1015.31 1014.84 1014.42 1014.07 1013.79 1013.60 1013.50 1013.48 1013.54 1013.67 1013.85 1014.08 1014.34 1014.63 1014.94 1015.28 1015.62 1015.98 1016.35 1016.72 1017.09 1017.45 1017.78 1018.10 1018.38 1018.63 1018.84 1019.02 1019.16 1019.27 1019.36
1019.14 1019.04 1018.92 1018.77 1018.58 1018.34 1018.04 1017.67 1017.25 1016.77 1016.26 1015.72 1015.18 1014.66 1014.19 1013.77 1013.42 1013.15 1012.96 1012.85 1012.83 1012.87 1012.98 1013.15 1013.37 1013.63 1013.94 1014.28 1014.65 1015.05 1015.46 1015.88 1016.30 1016.71 1017.09 1017.44 1017.76 1018.03 1018.26 1018.45 1018.60 1018.71 1018.79
1019.64 1019.52 1019.38 1019.20 1018.99 1018.72 1018.40 1018.02 1017.57 1017.08 1016.55 1016.00 1015.44 1014.90 1014.39 1013.92 1013.52 1013.17 1012.91 1012.71 1012.59 1012.54 1012.55 1012.64 1012.78 1012.98 1013.24 1013.54 1013.90 1014.28 1014.69 1015.11 1015.54 1015.96 1016.35 1016.72 1017.04 1017.33 1017.56 1017.76 1017.91 1018.02 1018.10
1020.20 1020.07 1019.92 1019.75 1019.53 1019.26 1018.93 1018.55 1018.12 1017.64 1017.12 1016.58 1016.03 1015.48 1014.96 1014.47 1014.03 1013.64 1013.30 1013.03 1012.82 1012.67 1012.58 1012.56 1012.60 1012.71 1012.88 1013.11 1013.40 1013.72 1014.09 1014.47 1014.86 1015.25 1015.63 1015.97 1016.28 1016.55 1016.78 1016.97 1017.12 1017.23 1017.32
Thickness
5689 5687 5684 5680 5678 5674 5671 5668 5665 5663 5660 5658 5655 5653 5650 5648 5645 5642 5639 5636 5633 5631 5629 5627 5625 5624 5622 5621 5619 5617 5615 5613 5609 5609 5611 5613 5613 5613 5614 5615 5616 5617 5617
5685 5682 5679 5675 5672 5669 5666 5664 5662 5659 5656 5654 5651 5648 5645 5643 5640 5637 5634 5632 5629 5626 5624 5622 5620 5619 5617 5615 5614 5612 5610 5608 5605 5603 5604 5605 5606 5607 5607 5608 5609 5610 5611
5679 5676 5673 5670 5667 5664 5662 5659 5657 5654 5651 5648 5645 5642 5640 5638 5635 5632 5629 5626 5624 5621 5619 5616 5614 5613 5610 5609 5608 5606 5604 5604 5601 5598 5598 5598 5599 5600 5600 5601 5602 5603 5604
5674 5670 5667 5665 5663 5660 5657 5654 5652 5649 5646 5643 5640 5637 5635 5632 5630 5627 5624 5621 5618 5615 5613 5611 5609 5607 5606 5604 5603 5600 5599 5597 5594 5592 5591 5591 5591 5592 5592 5591 5593 5594 5596
5668 5665 5662 5660 5657 5654 5651 5649 5646 5643 5641 5638 5635 5632 5629 5626 5624 5622 5619 5616 5612 5609 5607 5605 5604 5603 5602 5600 5598 5595 5593 5590 5587 5585 5584 5583 5583 5582 5582 5583 5583 5586 5588
5663 5660 5657 5654 5650 5648 5645 5642 5640 5637 5634 5631 5628 5626 5623 5622 5620 5617 5614 5610 5606 5603 5600 5598 5597 5596 5595 5594 5593 5591 5589 5585 5581 5579 5577 5576 5576 5576 5575 5576 5575 5576 5578
5657 5655 5651 5648 5644 5641 5639 5635 5632 5630 5627 5623 5621 5619 5616 5615 5614 5611 5608 5604 5599 5596 5593 5591 5590 5589 5587 5586 5585 5584 5582 5581 5579 5576 5573 5572 5572 5572 5570 5569 5568 5569 5571
5650 5647 5645 5642 5638 5635 5631 5628 5625 5623 5620 5617 5614 5613 5610 5609 5607 5604 5601 5597 5592 5589 5587 5585 5582 5580 5579 5578 5577 5575 5573 5573 5572 5571 5570 5570 5569 5568 5566 5565 5564 5564 5566
5642 5640 5638 5635 5631 5627 5623 5620 5618 5615 5612 5610 5608 5605 5603 5602 5600 5597 5594 5589 5585 5582 5580 5578 5576 5574 5574 5572 5569 5567 5566 5565 5565 5565 5565 5564 5563 5562 5561 5559 5557 5556 5557
5635 5633 5631 5629 5625 5621 5618 5614 5611 5608 5606 5603 5600 5598 5596 5594 5593 5590 5587 5583 5578 5575 5573 5571 5570 5569 5568 5565 5562 5560 5558 5557 5557 5557 5556 5556 5555 5555 5554 5553 5552 5550 5549
5628 5625 5623 5620 5618 5615 5611 5608 5605 5602 5598 5595 5592 5590 5588 5587 5585 5583 5581 5576 5573 5569 5566 5564 5563 5563 5562 5559 5557 5554 5553 5551 5549 5548 5547 5547 5546 5546 5546 5547 5546 5545 5544
5619 5616 5613 5611 5609 5607 5603 5600 5597 5594 5590 5587 5584 5581 5578 5577 5576 5575 5573 5571 5567 5563 5560 5558 5556 5556 5555 5553 5550 5548 5547 5544 5541 5539 5538 5538 5537 5538 5539 5539 5539 5539 5539
5609 5606 5604 5602 5599 5597 5594 5591 5588 5585 5582 5579 5576 5573 5570 5568 5567 5567 5565 5562 5559 5555 5553 5552 5550 5548 5546 5544 5543 5541 5538 5535 5533 5531 5530 5530 5531 5531 5531 5531 5531 5531 5531
5599 5596 5594 5592 5589 5587 5585 5583 5579 5576 5573 5571 5568 5565 5562 5559 5558 5556 5554 5552 5550 5547 5545 5543 5541 5539 5537 5535 5533 5531 5529 5527 5525 5523 5523 5522 5522 5522 5522 5522 5521 5521 5521
5589 5586 5584 5582 5580 5577 5574 5572 5571 5569 5567 5565 5562 5558 5554 5552 5551 5549 5546 5544 5541 5539 5536 5533 5530 5528 5526 5524 5523 5522 5520 5518 5517 5516 5515 5514 5514 5513 5513 5513 5512 5512 5511
5579 5577 5575 5572 5570 5567 5564 5561 5560 5559 5558 5556 5554 5551 5548 5546 5544 5541 5538 5536 5534 5531 5526 5523 5521 5519 5517 5516 5514 5512 5511 5510 5509 5508 5507 5506 5505 5505 5504 5504 5504 5503 5503
5571 5568 5565 5563 5561 5558 5555 5552 5549 5547 5546 5545 5543 5541 5539 5537 5534 5531 5528 5525 5523 5520 5516 5513 5511 5510 5509 5507 5505 5504 5502 5502 5500 5499 5499 5498 5497 5496 5496 5495 5494 5494 5494
5562 5560 5557 5554 5551 5549 5546 5543 5541 5538 5535 5532 5532 5531 5529 5526 5523 5520 5517 5513 5509 5507 5505 5504 5502 5501 5500 5498 5496 5495 5493 5492 5491 5490 5490 5489 5488 5488 5487 5486 5485 5484 5484
5552 5549 5547 5544 5541 5538 5535 5533 5530 5528 5525 5522 5520 5518 5517 5514 5511 5508 5505 5501 5498 5496 5494 5493 5492 5491 5490 5489 5487 5486 5484 5483 5482 5481 5480 5480 5479 5478 5477 5477 5476 5476 5475
5541 5540 5537 5533 5530 5527 5524 5522 5519 5516 5514 5512 5509 5507 5504 5501 5497 5495 5492 5490 5488 5486 5485 5483 5482 5480 5479 5478 5477 5476 5474 5473 5472 5471 5471 5471 5470 5469 5469 5468 5467 5466 5466
5531 5529 5527 5522 5519 5517 5514 5511 5509 5506 5503 5501 5499 5497 5495 5491 5488 5485 5482 5480 5479 5477 5475 5473 5472 5470 5468 5467 5467 5466 5465 5465 5464 5463 5462 5461 5461 5460 5460 5459 5459 5458 5457
5520 5517 5514 5511 5508 5506 5503 5501 5498 5496 5493 5491 5488 5486 5484 5480 5477 5475 5473 5471 5470 5468 5466 5464 5462 5461 5459 5457 5457 5456 5456 5455 5454 5453 5453 5453 5452 5452 5451 5450 5449 5449 5448
5509 5506 5503 5500 5498 5496 5493 5490 5487 5485 5483 5481 5478 5476 5473 5470 5467 5465 5463 5461 5459 5457 5456 5454 5452 5451 5450 5448 5448 5447 5447 5447 5446 5445 5445 5444 5444 5443 5442 5441 5440 5439 5438
5499 5497 5493 5490 5487 5485 5482 5480 5477 5475 5473 5471 5469 5466 5463 5460 5457 5455 5453 5452 5450 5448 5446 5445 5444 5443 5441 5440 5439 5439 5438 5438 5438 5437 5436 5436 5435 5434 5433 5432 5431 5430 5429
5489 5486 5483 5480 5477 5474 5472 5470 5467 5465 5463 5461 5459 5456 5453 5451 5448 5446 5444 5442 5441 5439 5438 5436 5435 5434 5433 5431 5431 5430 5430 5429 5429 5428 5427 5426 5426 5425 5424 5423 5422 5421 5420
5478 5476 5473 5470 5467 5465 5462 5459 5457 5455 5453 5451 5449 5446 5444 5441 5439 5437 5435 5433 5431 5430 5429 5428 5427 5426 5424 5423 5423 5422 5421 5421 5420 5419 5418 5417 5416 5416 5415 5414 5413 5412 5411